Location: St. Louis
(38.6270°N, 90.1994°W)
Time: 00:58:16
(UTC-06:00)

Courier 1B Rocket - Pass Details

Date: 08 December 2021
Orbit: 920 x 1202 km, 28.2° (Epoch: 16 January)

Event Time Altitude Azimuth Distance (km) Brightness Sun altitude
Rises 21:10:54 0° 240° (WSW) 3,823 8.5 -52.1°
Enters shadow 21:12:14 - 237° (WSW) 3,386 8.1 -52.4°
Reaches altitude 10° 21:14:01 10° 231° (SW) 2,820 - -52.7°
Maximum altitude 21:19:50 30° 172° (S) 1,671 - -53.8°
Drops below altitude 10° 21:25:21 10° 113° (ESE) 2,669 - -54.9°
Sets 21:28:13 0° 103° (ESE) 3,587 - -55.4°
